[[{"header":{"parameterUnit":"m.s-1","parameterCategory":1,"la1":30.2991,"la2":30.254,"lo1":-89.0895,"lo2":-89.0444,"dy":0.0017,"dx":0.0017,"nx":28,"ny":28,"refTime":"2025-07-16T21:00:00:Z","depth":0,"parameterNumber":2,"parameterNumberName":"U-component_of_WINDS"},"data":[0,0,0,0,0,0,0,0,0,0,0,0,0,0,0,0,0,0,0,0,0,0,0,0,0,0,0,0,0,0,0,0,0,0,0,0,0,0,0,0,0,0,0,0,0,0,0,0,0,0,0,0,0,0,0,0,0,0,-1.4607,-1.461,0,-1.4896,-1.4899,-1.4902,-1.5101,-1.5103,-1.5104,-1.5106,-1.5399,-1.5405,-1.5412,0,0,0,0,0,0,0,0,0,0,0,0,0,-1.4226,-1.4232,-1.4607,-1.4611,-1.4614,-1.4895,-1.4899,-1.4903,-1.5101,-1.5103,-1.5105,-1.5106,-1.5397,-1.5405,-1.5412,0,0,0,0,0,0,0,0,0,0,0,0,0,-1.444,-1.4234,-1.4606,-1.4747,-1.4762,-1.4895,-1.4899,-1.4904,-1.5101,-1.5103,-1.5105,-1.5107,-1.5395,-1.5404,-1.5413,-1.5428,0,0,-1.5443,-1.5447,0,0,0,0,0,0,0,0,-1.4428,-1.4454,-1.4723,-1.4737,-1.4755,-1.4965,-1.4873,-1.508,-1.51,-1.4972,-1.5106,-1.5108,-1.5253,-1.5274,-1.5323,-1.5442,-1.5454,-1.5444,-1.545,-1.5454,-1.5456,0,0,0,0,0,0,0,-1.4413,-1.4443,-1.4721,-1.4726,-1.4746,-1.4795,-1.4828,-1.4913,-1.5096,-1.4984,-1.4999,-1.503,-1.5262,-1.5314,-1.5332,-1.5459,-1.5443,-1.5452,-1.5458,-1.5462,-1.5603,-1.5601,0,0,0,0,0,0,-1.4376,-1.4429,-1.4712,-1.473,-1.4594,-1.48,-1.4837,-1.4895,-1.5096,-1.5129,-1.5028,-1.5038,-1.5296,-1.532,-1.5343,-1.5371,-1.5454,-1.5463,-1.5468,-1.5605,-1.5602,-1.56,0,0,0,0,0,0,-1.4367,-1.4399,-1.4701,-1.4584,-1.4626,-1.4804,-1.4868,-1.49,-1.4952,-1.513,-1.5163,-1.5047,-1.5299,-1.5329,-1.5405,-1.5384,-1.5467,-1.5476,-1.5607,-1.5604,-1.5601,-1.5429,0,0,0,0,0,0,-1.4355,-1.4395,-1.4402,-1.4583,-1.4631,-1.4758,-1.4867,-1.4904,-1.4968,-1.4984,-1.5156,-1.5187,-1.5303,-1.539,-1.5415,-1.5399,-1.5483,-1.561,-1.5606,-1.5602,-1.5437,-1.542,-1.5406,0,0,0,0,0,-1.4341,-1.4342,-1.4402,-1.4435,-1.4644,-1.4756,-1.4784,-1.4918,-1.4965,-1.4974,-1.5089,-1.5181,-1.5383,-1.5396,-1.5426,-1.5412,-1.5612,-1.5607,-1.5602,-1.5444,-1.5423,-1.5406,0,0,0,0,0,0,-1.4153,-1.4368,-1.4437,-1.4496,-1.4606,-1.4789,-1.4804,-1.4892,-1.4991,-1.5002,-1.5164,-1.5201,-1.5259,-1.5345,-1.5355,-1.5437,-1.5509,-1.551,-1.5378,-1.536,-1.5345,-1.5321,-1.5491,0,0,0,0,0,-1.4119,-1.4193,-1.4377,-1.4411,-1.4463,-1.4624,-1.4677,-1.4771,-1.4892,-1.4939,-1.506,-1.5172,-1.5262,-1.5316,-1.5408,-1.5452,-1.5491,-1.5458,-1.5442,-1.5428,-1.5426,-1.5453,-1.544,-1.5585,-1.5585,-1.5585,0,0,-1.4049,-1.4175,-1.4211,-1.4377,-1.4473,-1.4544,-1.4661,-1.4732,-1.4786,-1.495,-1.5028,-1.5121,-1.5258,-1.5316,-1.5349,-1.5389,-1.5395,-1.5423,-1.541,-1.5416,-1.5447,-1.5433,-1.5421,-1.5582,-1.5583,-1.5583,0,0,-1.3956,-1.406,-1.4099,-1.4194,-1.434,-1.4447,-1.4456,-1.4627,-1.4694,-1.4776,-1.49,-1.4967,-1.5118,-1.5209,-1.5275,-1.5219,-1.5307,-1.5245,-1.5161,-1.5186,-1.5174,-1.5165,-1.5141,-1.5131,-1.5243,-1.5243,-1.5242,0,-1.3849,-1.3962,-1.4108,-1.4172,-1.424,-1.4394,-1.4434,-1.4519,-1.4686,-1.4729,-1.4773,-1.4965,-1.5068,-1.5149,-1.5135,-1.5186,-1.5199,-1.5223,-1.5164,-1.5156,-1.515,-1.5129,-1.512,-1.5234,-1.5235,-1.5236,-1.5236,0,-1.3822,-1.3899,-1.3913,-1.4071,-1.4142,-1.4193,-1.4347,-1.4401,-1.449,-1.4591,-1.4672,-1.4802,-1.4922,-1.495,-1.5037,-1.5044,-1.5064,-1.5134,-1.5209,-1.5124,-1.5107,-1.5101,-1.5221,-1.5224,-1.5227,-1.5229,0,0,-1.3614,-1.3855,-1.3857,-1.393,-1.4103,-1.4164,-1.4223,-1.4342,-1.4383,-1.4495,-1.4546,-1.4671,-1.4737,-1.4812,-1.4911,-1.4934,-1.4877,-1.5002,-1.5007,-1.497,-1.4889,-1.4831,-1.4819,-1.4939,-1.4938,-1.4937,-1.4876,0,-1.3544,-1.3657,-1.3792,-1.3858,-1.393,-1.4078,-1.4129,-1.424,-1.4337,-1.4412,-1.4521,-1.4605,-1.4688,-1.4734,-1.4763,-1.4877,-1.4862,-1.4884,-1.4985,-1.4987,-1.4941,-1.4812,-1.4751,-1.4687,-1.4871,-1.487,-1.4869,0,-1.3476,-1.358,-1.3653,-1.3819,-1.3855,-1.3898,-1.4017,-1.4087,-1.4216,-1.4286,-1.437,-1.4477,-1.4546,-1.4615,-1.471,-1.4722,-1.4773,-1.4835,-1.4836,-1.4846,-1.4919,-1.4814,-1.467,-1.4658,-1.4861,-1.4862,-1.4862,0,-1.3312,-1.3471,-1.3535,-1.3594,-1.379,-1.3817,-1.39,-1.4032,-1.4094,-1.4199,-1.424,-1.4351,-1.441,-1.4494,-1.4627,-1.4666,-1.4707,-1.4789,-1.4764,-1.476,-1.4762,-1.4759,-1.4618,-1.4802,-1.4802,-1.4802,-1.4802,0,-1.3217,-1.3254,-1.3464,-1.3502,-1.3549,-1.3705,-1.3746,-1.3843,-1.3959,-1.4018,-1.4155,-1.4208,-1.4384,-1.4457,-1.4563,-1.4624,-1.4651,-1.4707,-1.4734,-1.4692,-1.4684,-1.4723,-1.4729,-1.48,-1.48,-1.48,-1.4801,0,-1.3038,-1.3181,-1.326,-1.344,-1.3487,-1.3512,-1.3667,-1.371,-1.3817,-1.389,-1.3917,-1.4084,-1.4177,-1.4321,-1.4457,-1.4528,-1.457,-1.4617,-1.4525,-1.454,-1.4506,-1.4505,-1.4382,-1.4372,-1.4565,-1.4563,-1.4561,0,-1.2965,-1.2998,-1.3182,-1.3232,-1.3311,-1.339,-1.3455,-1.361,-1.3672,-1.3822,-1.3845,-1.395,-1.4041,-1.4183,-1.4316,-1.4421,-1.4469,-1.4419,-1.4485,-1.4441,-1.4463,-1.4457,-1.4459,-1.4401,-1.4398,-1.4396,-1.4394,0,-1.2819,-1.2888,-1.2977,-1.3089,-1.3163,-1.326,-1.3363,-1.3396,-1.3573,-1.3636,-1.3733,-1.3804,-1.3944,-1.4044,-1.4168,-1.4253,-1.4351,-1.4373,-1.4372,-1.4326,-1.427,-1.4295,-1.4477,-1.4373,-1.4375,-1.4377,-1.4378,-1.4379,-1.2688,-1.2724,-1.2859,-1.2953,-1.3047,-1.314,-1.3189,-1.3303,-1.3387,-1.3513,-1.3601,-1.3692,-1.3821,-1.3997,-1.4078,-1.4151,-1.4193,-1.4193,-1.4192,-1.4188,-1.4171,-1.4263,-1.4174,-1.4175,-1.4176,-1.4177,-1.4177,0,-1.2545,-1.264,-1.2725,-1.2865,-1.2939,-1.3029,-1.3148,-1.3203,-1.3282,-1.3395,-1.3482,-1.3593,-1.3693,-1.3835,-1.3944,-1.3975,-1.4023,-1.3998,-1.3994,-1.4012,-1.4129,-1.4116,-1.3957,-1.3957,-1.3957,-1.3957,-1.3957,-1.3957,-1.2478,-1.2542,-1.2627,-1.2739,-1.2835,-1.2926,-1.2985,-1.3072,-1.3163,-1.3281,-1.3364,-1.3457,-1.3582,-1.3701,-1.3796,-1.3835,-1.3867,-1.3826,-1.3879,-1.3984,-1.4004,-1.4023,-1.4012,-1.3833,-1.3833,-1.3756,-1.3755,-1.3754]},{"header":{"parameterUnit":"m.s-1","parameterCategory":1,"la1":30.2991,"la2":30.254,"lo1":-89.0895,"lo2":-89.0444,"dy":0.0017,"dx":0.0017,"nx":28,"ny":28,"refTime":"2025-07-16T21:00:00:Z","depth":0,"parameterNumber":3,"parameterNumberName":"V-component_of_WINDS"},"data":[0,0,0,0,0,0,0,0,0,0,0,0,0,0,0,0,0,0,0,0,0,0,0,0,0,0,0,0,0,0,0,0,0,0,0,0,0,0,0,0,0,0,0,0,0,0,0,0,0,0,0,0,0,0,0,0,0,0,-0.0661,-0.0658,0,-0.0349,-0.0346,-0.0342,-0.0176,-0.0175,-0.0175,-0.0175,0.0168,0.0177,0.0186,0,0,0,0,0,0,0,0,0,0,0,0,0,-0.1092,-0.1085,-0.0662,-0.0658,-0.0654,-0.035,-0.0345,-0.0341,-0.0176,-0.0175,-0.0175,-0.0175,0.0165,0.0176,0.0187,0,0,0,0,0,0,0,0,0,0,0,0,0,-0.0854,-0.1082,-0.0662,-0.0535,-0.0521,-0.0351,-0.0345,-0.034,-0.0176,-0.0175,-0.0175,-0.0175,0.0162,0.0175,0.0188,0.0263,0,0,0.0229,0.0235,0,0,0,0,0,0,0,0,-0.0868,-0.0839,-0.0558,-0.0544,-0.0527,-0.0302,-0.0371,-0.0137,-0.0176,-0.0306,-0.0175,-0.0175,0.0013,0.0039,0.0097,0.0279,0.0294,0.023,0.0238,0.0244,0.0248,0,0,0,0,0,0,0,-0.0885,-0.0851,-0.0537,-0.0554,-0.0535,-0.0486,-0.0452,-0.0326,-0.0151,-0.0295,-0.0282,-0.0249,0.0022,0.0084,0.0107,0.0299,0.023,0.0241,0.025,0.0255,0.0562,0.0563,0,0,0,0,0,0,-0.0925,-0.0866,-0.0547,-0.0528,-0.0701,-0.0479,-0.0441,-0.0374,-0.0153,-0.0119,-0.0249,-0.0242,0.0061,0.0091,0.0119,0.0223,0.0244,0.0256,0.0264,0.0562,0.0562,0.0563,0,0,0,0,0,0,-0.0935,-0.0898,-0.056,-0.0693,-0.0647,-0.0472,-0.0398,-0.0368,-0.0306,-0.0119,-0.0084,-0.0219,0.0063,0.0101,0.0225,0.0238,0.0262,0.0274,0.0562,0.0562,0.0562,0.043,0,0,0,0,0,0,-0.0948,-0.0903,-0.0878,-0.0695,-0.0641,-0.0467,-0.0398,-0.0362,-0.0286,-0.0274,-0.0081,-0.0049,0.0066,0.0204,0.0238,0.0256,0.0285,0.0562,0.0562,0.0562,0.0434,0.0426,0.0418,0,0,0,0,0,-0.0964,-0.0923,-0.0878,-0.084,-0.0607,-0.0467,-0.0435,-0.0311,-0.0286,-0.0256,-0.0135,-0.0055,0.023,0.0215,0.0256,0.0278,0.0562,0.0562,0.0562,0.0438,0.0427,0.0419,0,0,0,0,0,0,-0.1102,-0.0897,-0.0844,-0.0745,-0.0626,-0.0439,-0.0398,-0.0326,-0.0205,-0.0197,-0.0041,0.0002,0.0112,0.0209,0.0188,0.0364,0.0405,0.0413,0.0296,0.0288,0.028,0.0256,0.0296,0,0,0,0,0,-0.1122,-0.1033,-0.0855,-0.0784,-0.0728,-0.0574,-0.0508,-0.0423,-0.029,-0.0236,-0.0106,0.0027,0.0147,0.0223,0.0344,0.0449,0.0496,0.0485,0.0477,0.0469,0.0475,0.0542,0.054,0.0564,0.0564,0.0564,0,0,-0.116,-0.1037,-0.0989,-0.0809,-0.0706,-0.061,-0.0532,-0.0433,-0.0358,-0.0218,-0.0095,0.0005,0.0165,0.028,0.0338,0.0364,0.0479,0.047,0.0462,0.0473,0.0542,0.0539,0.0537,0.0564,0.0564,0.0564,0,0,-0.1181,-0.1081,-0.1011,-0.0911,-0.076,-0.0658,-0.0641,-0.0466,-0.0396,-0.0272,-0.0164,-0.0068,0.0135,0.0244,0.0326,0.0347,0.0427,0.0383,0.0343,0.0405,0.0403,0.0403,0.0413,0.0414,0.0388,0.0388,0.0387,0,-0.1245,-0.1105,-0.0981,-0.0891,-0.0812,-0.0689,-0.0612,-0.0518,-0.0332,-0.0277,-0.0252,0.0004,0.0121,0.0264,0.0268,0.033,0.036,0.0362,0.0392,0.0393,0.0394,0.0406,0.0409,0.0381,0.0382,0.0383,0.0383,0,-0.119,-0.1093,-0.1053,-0.0886,-0.0802,-0.0718,-0.0575,-0.0504,-0.0426,-0.0324,-0.0195,-0.0052,0.01,0.0141,0.0222,0.0298,0.0309,0.036,0.0405,0.0383,0.0397,0.0402,0.0372,0.0374,0.0376,0.0378,0,0,-0.1288,-0.1056,-0.1043,-0.0965,-0.0789,-0.0707,-0.0615,-0.0474,-0.0414,-0.0289,-0.0204,-0.0036,0.0013,0.0106,0.0201,0.0255,0.0266,0.0302,0.0308,0.0292,0.0363,0.0323,0.0326,0.0319,0.0321,0.0322,0.035,0,-0.1282,-0.1122,-0.1008,-0.0887,-0.0793,-0.0674,-0.0592,-0.0471,-0.0373,-0.0272,-0.0159,-0.0043,0.0011,0.0068,0.0127,0.0251,0.0283,0.0251,0.0407,0.0411,0.0363,0.0333,0.0291,0.0311,0.0356,0.0357,0.0358,0,-0.1255,-0.1143,-0.1016,-0.085,-0.0806,-0.0736,-0.0596,-0.0505,-0.0362,-0.0293,-0.0191,-0.0095,0.0016,0.0049,0.0207,0.0183,0.0255,0.0326,0.033,0.0351,0.0383,0.0355,0.032,0.0323,0.0367,0.0367,0.0366,0,-0.1338,-0.1153,-0.1053,-0.099,-0.0794,-0.0747,-0.0662,-0.052,-0.0442,-0.0316,-0.0263,-0.0124,-0.0046,0.0063,0.0197,0.0208,0.0343,0.0387,0.0409,0.0405,0.0433,0.043,0.041,0.0476,0.0476,0.0476,0.0476,0,-0.1343,-0.1269,-0.1089,-0.1027,-0.0938,-0.0804,-0.0718,-0.062,-0.0495,-0.0406,-0.0291,-0.0208,-0.0038,0.0068,0.0175,0.0292,0.0326,0.039,0.0418,0.038,0.0372,0.043,0.0433,0.0477,0.0476,0.0476,0.0476,0,-0.142,-0.1297,-0.118,-0.1006,-0.096,-0.0903,-0.0749,-0.068,-0.0577,-0.0466,-0.0431,-0.0265,-0.0135,0.0009,0.019,0.0263,0.0374,0.0413,0.0322,0.0339,0.0353,0.035,0.0372,0.0383,0.0437,0.0436,0.0436,0,-0.1432,-0.1374,-0.1195,-0.1133,-0.1053,-0.0951,-0.0873,-0.0736,-0.0657,-0.0491,-0.0441,-0.0303,-0.0186,0.0019,0.0161,0.0302,0.0346,0.0344,0.0369,0.0329,0.0349,0.0344,0.0353,0.0337,0.0336,0.0335,0.0334,0,-0.1464,-0.1407,-0.1303,-0.1178,-0.109,-0.0982,-0.0869,-0.0821,-0.066,-0.0576,-0.0446,-0.0356,-0.0175,-0.0037,0.012,0.0219,0.0306,0.0324,0.0338,0.03,0.0246,0.0277,0.0304,0.0324,0.0325,0.0326,0.0326,0.0327,-0.1506,-0.1449,-0.1316,-0.1203,-0.1106,-0.1003,-0.093,-0.082,-0.0712,-0.056,-0.0483,-0.0353,-0.0205,0.0013,0.0109,0.0219,0.0246,0.0264,0.027,0.0272,0.0263,0.0226,0.0249,0.0249,0.025,0.025,0.0251,0,-0.1531,-0.1441,-0.1339,-0.1189,-0.1099,-0.1035,-0.0905,-0.0831,-0.0722,-0.0597,-0.0486,-0.0334,-0.02,-0.0048,0.0097,0.0157,0.0201,0.0191,0.0189,0.0211,0.0229,0.0204,0.0153,0.0153,0.0153,0.0153,0.0153,0.0153,-0.1534,-0.1433,-0.136,-0.1207,-0.1113,-0.0992,-0.0923,-0.0825,-0.0725,-0.0564,-0.0456,-0.0361,-0.0222,-0.0066,0.0062,0.0105,0.0155,0.0133,0.0187,0.0202,0.0209,0.0217,0.0194,0.0142,0.0142,0.016,0.016,0.016]}]]